Location: Barruelo
(41.2448°N, 3.8231°W)
Time: 16:47:35
(UTC+00:00)

Cosmos 2369 - Pass Details

Date: 11 December 2025
Orbit: 839 x 854 km, 71.0° (Epoch: 16 January)

Event Time Altitude Azimuth Distance (km) Brightness Sun altitude
Rises 18:20:34 0° 186° (S) 3,403 7.2 -17.1°
Reaches altitude 10° 18:23:04 10° 182° (S) 2,473 6.3 -17.5°
Maximum altitude 18:28:32 51° 108° (ESE) 1,070 3.9 -18.5°
Enters shadow 18:31:01 30° 50° (NE) 1,481 4.5 -19.0°
